Location: Mountain Grove
(34.0887°N, 86.6172°W)
Time: 20:25:18
(UTC+00:00)

Cosmos 2181 Rocket - Pass Details

Date: 14 July 2020
Orbit: 951 x 1015 km, 82.9° (Epoch: 08 August)

Event Time Altitude Azimuth Distance (km) Brightness Sun altitude
Rises 02:49:12 0° 351° (N) 3,690 7.9 -19.3°
Reaches altitude 10° 02:51:45 10° 349° (N) 2,729 7.1 -19.7°
Maximum altitude 02:57:57 71° 267° (W) 1,019 4.2 -20.5°
Enters shadow 03:01:55 23° 188° (S) 1,915 5.2 -21.1°
